GFSNW_con_3kmhel_336.txt.gz
Helicity
131 133 139 127 109 78 70 57 51 68 68 39 60 70 30 32 39 42 32 33 39 28 21 40 36 41 22 -4 -7 18 32 39 41 11 11 9 -10 33 17 71 88 52 51 13
131 142 131 123 106 76 61 58 52 66 60 18 63 41 59 53 13 37 20 27 37 30 24 47 49 35 18 1 5 5 13 43 9 34 60 21 28 63 37 82 78 47 54 19
144 157 132 109 102 76 73 64 43 47 32 78 56 47 33 39 54 50 47 33 27 31 43 42 60 59 31 7 8 -1 19 57 1 31 -1 53 42 50 49 46 57 -8 2 23
154 147 125 99 82 66 85 81 59 86 58 74 13 22 8 28 25 37 38 35 38 23 49 70 81 53 48 40 18 26 26 81 44 3 -5 1 28 70 116 56 -7 -21 -10 26
152 144 118 92 79 43 69 58 45 75 89 36 47 42 2 17 40 28 37 47 43 29 71 85 101 75 71 109 65 43 60 78 63 26 -8 31 57 71 52 106 58 3 -3 26
143 132 118 85 55 49 63 61 114 40 88 31 30 17 1 17 28 43 43 48 49 82 70 50 99 139 142 133 125 90 78 101 99 13 -39 48 89 131 56 10 46 30 23 43
141 129 117 73 40 62 66 53 65 91 105 56 41 37 57 34 14 24 22 20 32 41 59 107 119 123 135 134 113 97 82 85 74 29 -5 70 34 7 71 17 47 58 33 7
151 136 100 60 24 52 43 38 69 91 133 91 78 92 87 77 63 59 49 26 4 -2 60 98 159 186 144 168 118 129 103 85 32 35 94 79 64 60 69 85 63 45 49 21
157 117 67 42 37 31 74 82 97 110 104 80 52 51 17 14 12 20 17 11 -8 26 54 116 183 234 172 187 105 58 54 87 97 136 155 96 82 97 88 93 71 43 61 37
134 77 49 53 38 74 90 118 184 98 204 88 49 -0 -7 -12 -0 10 9 5 45 34 105 163 151 133 32 93 102 45 80 139 161 178 169 98 121 117 97 106 68 113 79 49
121 84 70 59 66 93 175 211 144 65 193 178 63 39 19 -2 -18 7 16 36 62 87 123 53 29 29 -9 -25 -26 -0 152 209 153 198 193 92 79 88 67 78 129 126 92 62
112 104 98 82 90 150 236 194 186 192 183 120 82 107 87 32 -40 -12 -7 11 30 2 13 -24 -33 -10 -29 -63 6 107 164 175 183 115 106 131 100 117 121 131 133 116 114 82
104 110 129 141 184 195 163 190 159 300 248 218 137 195 170 88 -38 -31 -17 -1 -38 -95 -131 -126 -91 -54 -19 8 105 153 139 130 147 132 137 124 117 129 105 111 104 109 103 86
120 141 150 193 263 320 292 176 91 149 94 192 161 107 149 138 12 -13 -41 -14 -65 -76 -108 -92 -60 -32 68 76 99 146 146 128 144 184 99 89 116 109 124 101 90 81 67 65
129 169 211 278 280 260 245 218 198 98 38 91 76 85 180 77 10 3 -10 -36 -57 -67 -61 -43 -15 61 110 127 164 150 130 118 129 99 69 78 126 119 116 125 88 64 71 62
156 179 209 186 151 195 167 171 129 229 223 160 96 96 100 60 13 14 17 -38 -57 -47 -35 4 63 60 81 108 110 129 145 132 178 122 112 123 187 172 140 122 102 62 44 42
158 181 172 130 96 100 104 47 29 72 89 152 67 12 21 56 -17 -15 17 -11 -18 -13 3 -9 29 61 91 146 103 169 178 119 87 117 113 86 80 127 131 116 78 40 16 2
128 94 77 71 57 140 329 284 153 101 44 55 31 29 -21 15 -26 2 2 13 24 -20 -9 16 10 78 126 100 157 159 127 99 83 77 62 79 123 98 74 54 44 22 21 -4
109 112 154 215 256 264 183 201 166 91 46 31 37 20 -20 -49 -20 -9 2 -17 21 -2 -7 -4 19 32 28 128 176 127 143 109 102 74 22 25 53 71 65 63 63 48 33 15
221 252 235 236 180 200 178 131 90 74 57 54 60 37 27 -46 -48 -36 -17 -35 -15 5 -17 -9 13 55 59 81 99 92 88 90 59 65 82 72 77 85 87 75 61 53 43 19
231 219 221 184 168 168 131 111 103 90 78 72 68 27 61 26 -39 -15 -27 -19 -21 -0 -9 -7 9 15 -23 -13 44 57 78 67 61 60 45 46 57 54 55 68 74 53 39 35
144 135 207 193 175 137 105 127 93 90 72 77 56 77 66 38 26 -22 -16 -18 -15 -1 -3 -1 10 -5 -23 -20 -23 20 62 65 70 51 58 42 48 53 42 49 68 73 57 50
252 284 228 172 138 132 125 105 101 77 67 65 68 86 63 36 7 -1 -11 -1 -0 22 7 17 23 8 -1 -7 -10 -10 30 52 54 68 61 52 47 51 61 63 61 52 66 79
236 240 206 160 141 120 89 113 93 76 59 110 94 122 43 32 24 6 10 13 18 27 36 28 43 33 7 -7 -14 -10 21 59 50 36 50 82 67 53 46 55 64 58 54 63
242 189 185 156 112 134 95 96 126 109 132 144 118 85 56 55 31 17 21 26 22 26 33 58 64 50 25 19 12 18 22 43 62 59 50 41 64 72 65 48 32 37 49 60
215 155 147 146 122 121 123 91 139 151 138 139 117 76 60 55 35 36 28 39 37 45 66 91 73 48 24 17 13 18 24 32 32 40 39 50 34 42 50 47 61 51 21 20
183 178 141 128 139 108 82 88 155 176 153 153 94 86 84 50 57 52 38 54 61 92 107 80 48 25 11 3 5 4 7 14 32 32 36 38 30 36 39 53 61 67 81 36

GFSNW_con_3kmhel_339.txt.gz
Helicity
107 116 128 116 95 117 95 106 68 82 89 32 27 23 60 70 71 69 69 69 65 45 27 54 55 78 65 19 -2 14 7 4 28 32 4 -5 0 -8 -5 48 44 33 12 0
113 111 118 117 101 86 104 90 75 71 71 3 29 51 80 100 65 78 45 38 41 21 37 54 75 71 45 27 24 -2 3 26 34 57 46 20 -28 18 36 32 15 2 19 9
115 108 121 114 108 70 92 108 66 47 39 33 32 71 56 61 74 70 66 47 34 33 55 62 79 97 61 39 47 18 39 51 53 79 42 6 -9 35 -5 12 23 31 19 27
121 106 125 121 118 69 96 93 63 95 23 48 46 43 42 58 39 52 41 41 27 35 51 77 102 101 76 53 63 49 39 82 78 90 56 31 49 93 70 50 5 -8 18 22
125 114 122 117 109 72 92 61 83 85 101 60 35 53 24 35 61 64 46 44 37 43 110 96 126 130 128 147 75 79 91 96 111 111 42 43 93 67 80 67 16 14 19 10
127 118 123 102 93 81 60 63 95 78 62 43 28 31 26 38 48 73 63 45 63 105 125 155 175 181 179 159 147 132 114 89 74 92 -23 54 81 141 67 14 22 7 -11 -16
124 117 121 90 78 78 110 75 105 103 104 62 46 56 69 48 28 49 34 26 66 76 76 102 120 116 132 108 148 121 134 77 54 54 34 61 43 60 111 52 15 42 -8 -31
111 124 108 82 64 84 104 138 130 131 164 91 87 67 85 87 75 71 62 56 68 21 43 90 116 93 41 103 61 94 56 124 40 9 68 83 51 37 86 69 40 25 18 25
124 127 98 65 47 86 87 98 159 111 170 140 56 49 31 27 24 33 37 39 26 27 42 85 145 168 104 193 68 14 23 102 102 112 110 100 58 44 65 87 50 27 24 34
138 106 72 54 36 83 96 135 214 146 163 126 54 9 -8 -17 -5 26 36 53 75 13 69 117 118 90 -5 51 27 15 69 124 66 212 122 109 77 58 90 114 44 69 58 39
109 68 55 50 51 69 92 169 198 110 220 160 50 66 28 -11 -38 -15 48 61 49 27 49 30 -33 -58 -31 20 -10 81 110 200 88 306 162 78 76 49 82 45 62 90 56 32
73 72 72 67 61 105 157 212 128 236 228 115 62 109 65 18 15 -14 10 18 -11 -67 -78 -113 -59 -5 -20 16 85 63 138 154 99 147 96 90 95 72 78 94 93 75 63 40
102 89 92 105 119 152 120 174 196 272 255 204 136 184 142 51 4 -19 -16 -33 -99 -137 -169 -117 -33 -7 38 81 70 92 129 71 108 182 118 111 102 120 90 82 71 72 58 43
111 121 128 112 92 166 229 235 159 140 144 207 167 92 122 91 11 -19 -26 -18 -63 -41 -51 -22 18 42 62 71 82 112 122 132 134 133 109 141 78 57 56 69 65 57 41 35
126 156 176 172 250 286 249 234 188 173 62 115 75 79 134 62 12 0 -26 -31 -38 -45 -35 -22 -1 55 84 85 110 135 145 128 99 68 85 104 117 72 97 109 77 50 39 30
159 170 175 150 134 191 156 215 171 138 155 165 75 64 91 46 -12 -10 -23 -43 -43 -34 -24 -27 29 62 60 49 100 120 116 103 140 113 112 156 208 266 155 95 76 44 21 6
192 206 203 185 152 109 88 66 51 137 138 190 89 18 44 49 -21 -30 -42 -40 -34 -28 -14 -7 -19 41 80 100 90 183 132 102 88 152 180 105 101 111 102 64 28 -5 -4 -7
163 127 18 -65 -67 21 225 328 178 196 95 98 39 26 -13 99 -33 -48 -20 -30 -43 -20 -9 9 -16 34 76 19 127 130 105 87 72 140 68 79 72 70 67 56 14 20 12 2
86 57 60 156 174 240 225 195 188 107 61 33 37 28 -20 7 -17 -29 -33 -36 -28 -15 -25 -17 -8 -2 1 103 119 113 120 81 88 39 33 68 71 71 61 59 54 35 20 15
230 293 209 200 186 235 218 162 112 78 56 93 99 38 31 -35 -31 -22 -43 -49 -27 4 -19 -5 -7 6 -11 31 51 55 104 81 47 42 47 39 70 82 62 66 54 52 45 27
262 218 192 185 228 228 155 125 111 80 68 83 75 31 72 65 -21 -30 -18 -45 -38 -8 -11 5 -5 1 -10 -2 8 46 49 71 54 46 34 30 24 41 53 55 60 48 46 44
157 137 244 228 190 149 99 141 101 86 71 73 45 56 43 63 57 -18 -18 -33 -35 -23 0 -2 12 -1 10 -4 -8 -13 40 63 69 58 59 48 46 40 35 42 44 50 49 54
262 297 266 186 154 146 116 122 112 73 70 68 72 75 55 45 27 5 -14 -21 -26 8 -21 -14 11 31 21 25 2 -7 -11 1 49 73 72 52 43 47 55 41 35 33 39 56
255 238 209 179 159 131 120 146 110 74 76 82 80 113 47 37 31 8 0 -5 -9 -7 -1 -2 45 52 32 20 9 11 7 15 22 22 38 62 58 52 44 55 52 42 42 29
234 202 195 161 121 111 105 114 100 94 130 130 122 111 67 58 30 15 15 7 -2 -2 6 35 84 77 52 38 22 24 11 4 20 20 31 29 46 63 57 44 46 49 45 47
194 150 162 130 136 127 115 120 147 100 89 106 128 104 69 61 35 34 20 29 28 24 60 102 101 80 61 55 40 29 18 10 7 13 18 28 30 28 26 34 46 44 49 48
195 181 154 141 93 99 107 73 103 105 107 149 131 106 102 58 60 57 41 60 59 87 110 97 84 67 56 43 32 17 9 10 9 13 18 15 3 6 23 40 35 34 43 41

GFSNW_con_3kmhel_342.txt.gz
Helicity
74 79 95 94 102 105 98 135 93 62 57 82 29 15 32 67 76 65 77 113 104 71 52 77 77 96 92 33 12 33 22 -9 57 79 42 36 49 0 -7 -7 17 2 -15 17
84 82 100 98 105 83 150 132 57 66 78 50 39 44 68 93 66 89 75 67 77 59 69 62 85 80 63 42 42 29 23 28 42 66 43 5 -10 11 17 18 -5 34 29 18
91 83 106 100 93 69 128 135 88 68 84 85 46 31 32 62 105 99 88 74 65 61 74 81 85 102 80 59 63 72 64 71 125 162 115 13 39 30 22 21 32 36 17 27
95 83 115 113 101 56 116 178 94 92 30 25 6 10 39 53 58 61 66 64 64 68 65 77 110 121 77 68 70 74 89 196 134 136 104 126 217 208 77 49 14 16 11 20
100 83 119 113 108 61 118 114 90 115 74 65 57 26 51 80 94 68 65 69 65 104 167 156 174 145 176 192 71 121 143 169 105 147 98 104 141 231 92 83 26 17 18 16
97 102 121 121 105 91 123 63 95 66 44 21 44 43 47 68 77 111 91 73 104 139 140 160 185 218 196 160 175 178 158 138 104 95 45 55 109 136 124 56 73 56 2 -22
102 103 116 112 101 79 110 74 87 58 50 67 55 75 80 68 35 67 79 73 102 62 39 52 11 44 44 80 102 124 249 140 27 74 25 72 54 93 79 55 7 72 -24 31
99 103 107 110 102 87 122 108 137 96 150 107 100 97 96 100 102 93 79 90 83 20 -7 46 83 87 52 74 55 52 63 44 29 55 9 71 80 73 54 26 -12 -6 73 57
96 103 114 97 103 81 114 161 175 127 233 134 67 62 48 49 41 49 56 26 0 -9 -30 76 131 155 75 149 71 35 1 55 119 84 73 107 95 46 43 47 -22 41 77 100
100 105 114 99 92 76 179 150 227 148 180 282 145 58 35 17 28 32 38 28 42 12 3 30 55 18 -24 -13 -41 -64 86 114 39 123 134 106 76 47 48 68 49 79 98 104
108 107 97 88 49 113 199 194 131 102 186 244 137 141 97 35 12 24 26 10 -31 -74 -60 -46 -36 5 16 -2 12 90 88 111 110 245 197 108 95 72 64 50 56 96 105 45
102 91 87 57 72 124 127 158 162 195 243 182 120 85 49 73 77 18 -24 -68 -109 -124 -126 -69 -18 -1 35 81 149 71 91 63 115 119 75 64 69 52 39 69 93 88 86 36
75 83 63 58 81 198 125 178 190 333 285 294 202 210 103 36 47 3 -56 -90 -56 -112 -113 -79 -32 5 22 31 51 80 90 102 115 120 119 103 103 97 57 51 78 68 50 32
89 90 82 103 95 108 115 138 199 173 204 267 157 71 128 44 23 20 10 3 -12 -24 -95 -64 -4 5 -19 38 52 91 117 159 150 121 97 71 46 34 54 71 134 59 37 30
110 103 118 83 80 184 217 234 181 239 88 160 91 88 105 78 40 -3 -11 -22 -41 -38 -34 -17 -9 30 33 31 81 114 123 127 118 104 121 110 136 123 139 150 166 57 30 21
119 123 119 91 178 258 239 265 151 112 299 217 128 101 67 50 33 2 -19 -26 -29 -30 -34 -21 51 27 32 12 63 116 114 97 106 126 145 205 330 346 297 132 46 15 -1 -1
199 211 212 203 221 181 152 63 84 163 148 241 126 59 84 39 6 -21 -26 -35 -28 -29 22 1 -1 10 -3 65 66 151 109 91 104 188 186 137 151 173 111 9 -10 -16 13 7
190 181 133 -6 -34 72 149 286 265 253 117 112 69 79 36 71 -24 -32 -22 -29 -26 -22 -10 -10 -16 5 29 -5 99 96 82 63 73 30 29 62 76 77 136 132 70 41 26 21
122 31 65 260 232 153 190 252 266 184 70 41 59 61 32 81 1 -36 -37 -44 -22 -29 -14 -18 -21 -15 -2 49 68 84 94 92 104 9 19 36 52 71 73 98 105 79 54 42
164 300 245 238 172 232 220 173 131 96 91 102 92 63 61 7 5 -13 -33 -51 -15 -7 -15 -11 4 4 16 14 -6 72 142 53 23 13 37 35 39 58 57 64 50 44 45 47
310 282 256 213 244 255 176 133 106 73 73 91 53 48 87 45 14 11 -4 -48 -36 -18 -23 4 -1 7 2 10 3 -1 46 67 35 19 25 32 19 16 24 37 44 39 44 52
203 186 263 258 195 141 98 136 93 84 65 67 54 84 91 136 82 16 17 -25 -41 -35 -11 -36 -23 -2 25 23 13 3 -10 -12 46 51 45 49 47 37 26 27 28 33 37 35
239 304 296 195 153 150 112 98 105 75 76 61 90 83 87 76 51 30 14 -12 -25 9 -31 -34 -14 53 19 25 17 17 15 8 7 24 55 46 50 54 51 43 41 34 36 44
317 308 251 221 181 141 147 112 77 71 96 112 69 131 79 59 53 28 8 2 -11 -19 -14 -14 31 67 47 39 33 29 28 20 18 14 19 48 54 56 49 48 37 33 42 36
308 239 237 184 124 140 125 107 102 121 105 136 121 109 80 83 48 38 19 5 2 -10 -2 28 70 80 58 38 36 34 25 23 28 17 19 11 17 25 38 44 45 43 41 44
271 195 186 135 114 115 101 120 128 109 109 84 131 127 82 62 38 45 29 27 30 24 45 113 119 84 73 68 50 36 19 17 15 12 9 13 15 13 14 14 26 29 38 40
254 223 133 168 113 122 128 110 115 88 124 147 153 109 102 68 62 65 50 65 78 110 159 122 91 93 84 72 52 21 10 13 19 17 13 7 -2 -5 10 15 11 8 12 15

GFSNW_con_3kmhel_348.txt.gz
Helicity
30 75 64 63 60 71 69 70 26 98 123 118 119 78 36 18 43 92 119 109 129 149 164 150 100 61 82 70 67 101 90 122 135 67 28 23 39 50 21 56 55 72 74 23
32 82 73 55 51 36 112 67 60 130 98 85 114 102 78 58 78 99 81 105 130 150 133 115 98 85 62 83 90 92 128 162 166 64 65 58 97 75 47 47 42 51 55 -1
45 84 83 47 50 49 99 112 60 116 69 95 62 78 78 70 101 83 95 130 144 142 127 121 86 92 84 93 133 123 168 250 150 81 81 87 88 99 62 58 99 43 27 -9
53 93 68 42 63 50 99 131 88 71 44 47 57 85 52 60 47 59 120 122 118 84 112 118 107 84 100 135 185 190 206 264 255 186 176 248 241 248 230 184 27 44 -7 -23
59 99 71 43 57 53 125 160 127 104 73 105 121 76 53 39 73 72 86 135 162 162 145 92 108 122 127 169 146 175 157 210 202 202 190 226 266 310 240 208 148 84 8 -30
77 110 76 36 65 69 143 155 178 103 107 97 100 43 67 62 77 146 70 86 137 155 107 141 190 187 168 159 157 265 193 124 125 162 129 176 182 163 143 90 84 -10 -59 65
83 111 81 64 67 47 124 178 152 95 154 126 65 121 148 114 60 86 60 72 82 108 101 132 175 172 155 184 152 151 99 70 56 69 85 128 69 107 113 54 49 62 105 76
82 111 77 71 63 16 101 216 184 129 205 135 172 216 170 180 208 161 101 124 106 46 87 105 76 67 82 77 13 60 -21 -2 28 -19 49 94 101 96 76 16 42 83 106 78
92 116 75 72 48 4 95 231 197 166 166 139 98 110 86 109 86 83 63 24 11 18 9 13 8 -13 4 -6 -40 3 65 14 30 118 105 81 71 47 38 38 40 72 87 87
110 109 78 68 49 47 119 166 151 123 96 176 105 73 44 23 31 56 -1 -9 -16 -38 -53 -81 -102 -120 -37 -32 -9 81 82 78 111 74 66 77 74 48 36 23 43 83 86 126
118 97 80 76 120 106 116 173 146 82 124 235 91 59 30 22 3 14 2 1 -70 -59 -82 -143 -121 -92 -6 47 74 41 82 92 70 52 89 60 51 34 29 40 54 85 124 127
118 93 85 104 156 125 169 248 256 191 252 178 172 103 57 21 7 74 -35 -14 -16 -57 -87 -139 -99 -57 -24 15 50 59 60 66 45 55 57 90 77 62 50 59 86 91 96 104
111 97 88 158 139 125 137 192 175 305 330 353 210 152 124 56 88 10 -10 -3 -19 -64 -33 -45 -21 -30 13 30 65 89 123 111 108 124 118 90 85 73 84 68 76 47 68 89
109 105 112 132 116 93 108 200 197 210 247 255 223 203 154 137 78 53 34 66 58 11 -37 -4 7 25 38 70 65 105 110 109 129 131 114 97 108 100 87 84 48 57 65 60
114 110 113 110 78 50 189 212 200 185 60 194 193 270 227 143 89 74 53 56 32 33 20 70 111 93 43 63 75 75 96 60 57 88 116 129 191 251 241 145 100 69 37 27
114 107 114 75 39 129 230 243 201 24 289 257 214 211 194 153 66 26 63 73 64 84 82 91 84 53 38 33 62 61 81 95 96 96 90 168 302 293 210 29 26 13 36 38
121 122 75 52 136 119 134 67 63 143 216 225 178 166 176 149 66 90 78 112 72 68 48 68 34 73 44 20 13 13 62 98 134 154 93 70 114 166 208 181 144 185 152 81
114 103 100 149 130 90 175 225 174 166 112 111 84 140 124 119 84 117 75 -3 -17 33 39 24 35 41 38 -3 -9 31 48 70 41 -1 -27 13 45 75 138 140 155 139 107 70
145 172 209 216 187 211 224 184 170 122 51 31 85 137 90 56 78 80 126 -2 12 13 -9 4 -23 -10 -19 7 -7 11 35 31 38 11 -10 -1 31 35 68 83 88 69 64 48
264 318 250 238 205 253 207 209 151 114 80 68 137 167 120 38 68 93 44 49 -13 -15 -15 -38 -70 -46 28 0 29 77 104 54 6 -3 -8 -1 13 22 39 57 55 50 44 41
310 259 242 282 262 161 191 144 106 87 68 99 149 129 143 77 63 67 40 -18 -28 -47 -25 -29 -28 -22 -36 -20 18 67 61 19 0 8 10 11 11 16 20 34 38 40 41 47
216 198 265 245 174 193 117 141 120 85 66 146 125 111 169 162 93 48 54 28 8 -56 -27 -49 -33 -20 -18 -7 0 18 19 18 -6 2 6 8 16 21 15 13 22 21 22 38
306 349 304 232 236 170 99 89 112 91 136 158 162 182 170 142 88 57 48 38 1 7 -49 -38 -30 0 7 -2 1 5 19 14 8 -1 -2 10 17 16 4 16 17 26 43 20
321 358 316 237 210 139 102 98 86 109 141 186 195 251 131 107 89 57 46 33 20 -11 -43 -39 -18 38 33 4 -8 6 23 29 25 15 16 8 1 7 14 20 14 15 31 31
315 289 285 175 182 157 133 152 169 146 234 254 206 185 128 114 69 64 40 32 9 -23 -38 -20 32 74 70 37 24 40 49 42 35 29 27 24 8 25 29 18 13 11 20 39
288 233 167 211 231 247 224 189 137 170 225 187 158 140 107 82 52 53 26 22 1 -4 0 46 87 94 76 68 62 58 49 60 48 20 15 25 27 11 6 14 16 -11 -24 14
294 265 181 147 181 178 189 136 138 182 183 160 139 95 79 62 40 23 22 29 18 25 74 88 90 99 95 106 112 87 77 70 54 39 22 24 46 51 65 51 28 16 -16 -22

GFSNW_con_3kmhel_351.txt.gz
Helicity
97 43 24 41 56 99 72 83 116 95 117 79 86 36 39 69 76 82 70 83 103 94 126 130 102 76 68 64 82 117 129 160 201 151 104 113 99 113 84 112 85 104 105 56
95 45 35 52 67 78 88 117 91 120 123 37 67 88 90 51 50 69 76 97 106 119 135 117 107 105 70 94 112 125 167 185 207 147 119 102 148 124 69 96 83 95 94 32
102 40 34 59 71 58 85 133 88 85 83 84 51 73 71 62 79 75 94 102 113 135 146 156 120 99 95 130 169 182 207 247 162 143 106 122 153 116 44 62 90 83 71 30
136 41 32 66 77 49 80 121 91 71 -16 34 55 73 49 70 65 67 127 94 108 90 123 142 145 133 139 155 168 168 206 302 264 231 157 240 246 239 213 232 105 104 37 -17
142 38 25 83 64 20 76 155 117 94 51 69 91 79 59 67 49 78 62 89 130 125 115 95 106 137 167 173 184 168 184 232 217 267 187 255 324 246 208 238 162 96 -2 -6
153 43 53 89 66 62 83 118 131 91 88 85 82 55 58 50 62 114 91 106 173 184 153 246 270 241 220 192 187 205 170 154 189 228 173 241 280 200 138 105 69 -17 7 16
160 64 77 103 98 58 59 122 120 103 71 91 82 79 105 73 48 81 66 81 121 124 85 136 201 274 265 235 207 150 130 133 102 129 206 184 81 112 91 72 49 27 12 45
135 78 89 129 98 53 50 123 126 136 108 96 134 148 116 137 195 122 91 101 136 39 85 81 62 46 59 95 53 98 38 7 -36 64 73 87 110 100 57 65 48 68 40 40
114 90 103 142 77 37 53 114 197 155 120 107 139 152 116 118 84 94 92 101 32 12 -12 1 -21 -68 -66 -74 -87 69 0 47 29 127 62 48 64 66 49 42 30 70 12 43
105 97 117 123 82 47 65 142 131 130 58 146 107 71 57 38 60 53 13 7 -12 -22 -1 -20 -62 -86 -16 -36 -47 -21 51 86 63 69 44 27 44 31 26 20 33 41 30 70
105 102 113 124 84 81 78 125 90 90 59 155 88 83 39 47 62 25 21 -4 -9 10 -21 -41 -28 -36 -7 4 26 10 7 46 28 23 12 38 33 14 8 29 31 42 47 55
86 111 119 138 116 102 77 104 101 97 110 153 135 92 71 37 20 -18 11 2 41 12 -34 -35 -21 -25 -19 11 15 45 13 15 30 35 29 52 55 31 37 32 35 34 55 83
84 111 137 174 150 84 72 154 167 239 246 264 163 146 124 98 70 59 -14 -9 2 18 44 20 -2 -37 15 15 27 63 40 52 40 59 53 67 78 64 51 19 15 65 86 74
91 124 160 184 165 78 57 148 166 163 212 133 175 139 90 116 42 26 5 32 73 72 44 12 7 22 28 15 15 40 54 65 69 68 71 66 50 59 65 64 33 39 46 28
101 151 165 185 140 69 156 215 172 139 21 136 158 164 201 151 111 136 123 86 52 87 69 71 42 63 24 29 39 35 46 20 44 29 70 65 96 106 175 69 51 33 29 47
137 155 161 153 99 140 210 187 181 89 183 240 195 206 206 183 174 201 198 143 83 84 65 107 27 46 15 15 12 33 50 76 78 75 93 101 159 154 103 89 81 90 88 55
146 149 141 125 88 163 188 72 63 182 239 154 180 167 163 189 175 194 182 192 132 123 33 51 45 13 -16 -9 17 -1 45 74 96 78 26 58 103 90 114 140 108 112 95 47
138 124 123 89 103 130 134 174 215 168 84 100 80 134 137 130 151 152 122 69 62 69 21 27 22 37 39 8 16 13 32 49 28 -7 -16 -2 28 58 87 101 99 102 63 44
110 127 153 226 179 100 190 141 181 118 53 49 73 126 99 109 128 148 112 52 83 43 15 12 -15 4 -13 23 -1 4 7 5 24 -17 -19 -28 7 31 54 70 80 67 56 48
129 252 307 235 172 245 195 194 161 113 80 53 113 155 119 91 137 131 99 108 -11 -11 -16 -18 -41 -31 10 18 -1 16 47 32 16 0 1 -7 5 18 33 45 42 38 30 29
328 335 293 257 271 179 173 153 122 109 65 69 127 131 186 90 89 112 73 22 -17 -25 -9 -34 -29 -15 5 -1 4 28 18 -5 -10 0 -5 -5 6 13 20 34 37 35 37 33
289 233 277 336 160 178 127 147 142 89 56 102 128 144 163 147 108 62 59 28 23 -15 2 -32 -29 -19 5 3 13 7 5 10 8 6 15 5 13 16 21 24 31 29 24 29
312 370 323 189 199 202 118 100 138 88 96 151 197 204 141 142 101 73 51 43 12 11 -27 -45 -26 32 43 33 33 37 6 17 16 19 10 15 11 24 22 27 14 24 46 31
342 371 309 230 218 170 99 75 84 103 108 203 241 244 128 120 93 62 61 41 28 2 -31 -46 -11 53 70 50 37 58 37 35 30 23 12 12 22 42 42 33 21 34 45 32
277 253 261 158 152 157 134 165 185 163 281 284 226 167 138 140 84 75 48 41 9 -16 -25 -20 50 86 105 90 68 67 43 34 25 19 30 25 20 28 31 24 0 -14 -6 2
213 197 133 152 170 204 192 182 167 230 261 221 166 121 105 94 67 69 43 34 5 11 2 36 138 135 106 93 65 46 42 42 30 24 17 9 18 26 19 9 11 -4 -10 -8
219 211 133 106 182 172 200 148 204 181 173 159 156 128 109 85 84 62 42 31 26 19 66 104 114 127 114 82 77 64 54 50 38 25 28 35 54 54 53 44 15 19 -7 -14